www.pogodaiklimat.ru

Погода и климат >> Архив погоды >> Великобритания >> Аэродром Кенли


ПОГОДА на Аэродроме Кенли

  • Прогноз погоды на Аэродроме Кенли
  • Монитор погоды на Аэродроме Кенли

АРХИВ ПОГОДЫ на Аэродроме Кенли

Время (UTC), дата Ветер
(напр.,м/с)
 
Видим.   Явления Облачность Т
(С)
Тd
(С)
f
(%)
Тe
(С)
Тes
(С)
Комфортность P
(гПа)
Po
(гПа)
Тmin
(С)
Tmax
(С)
R
(мм)
R24
(мм)
S
(см)
16 11.09 ЮЗ 6 6000 м дым н/о +17.3 +16.1 93 +17 +17 1020.6 1000.5
17 11.09 ЮЗ 4 15 км в посл. час дождь н/о +17.3 +16.8 97 +17 +17 1021.0 1000.8
18 11.09 ЮЗ 5 23 км н/о +17.2 +16.6 96 +17 +17 1021.2 1001.0 +19.3 0.4
19 11.09 ЮЗ 4 35 км н/о +16.9 +16.2 96 +16 +16 1022.0 1001.8
20 11.09 З 4 45 км н/о +16.4 +15.5 94 +16 +16 1022.6 1002.4
21 11.09 ЮЗ 4 50 км н/о +16.2 +15.0 93 +15 +15 1023.5 1003.1
22 11.09 ЮЗ 4 50 км н/о +15.5 +14.1 91 +14 +14 1023.8 1003.5
23 11.09 З 4 50 км н/о +15.0 +13.2 89 +14 +14 1024.3 1003.9
00 12.09 ЮЗ 3 50 км н/о +14.2 +12.8 91 +13 +13 1024.7 1004.2
01 12.09 З 5 50 км н/о +13.9 +12.2 89 +12 +12 1025.0 1004.5
02 12.09 З 4 30 км н/о +13.6 +12.5 93 +12 +12 1025.4 1004.9
03 12.09 З 3 24 км н/о +13.2 +12.3 94 +12 +12 1025.6 1005.0
04 12.09 З 4 20 км н/о +12.9 +12.1 95 +11 +11 1025.9 1005.3
05 12.09 ЮЗ 3 23 км н/о +12.4 +11.8 96 +11 +11 1026.1 1005.5
06 12.09 ЮЗ 3 30 км н/о +12.4 +11.6 95 +11 +11 1026.8 1006.2 +12.3
07 12.09 З 3 40 км н/о +14.3 +13.1 92 +13 +13 1027.4 1006.8
08 12.09 ЮЗ 3 45 км н/о +15.2 +13.8 91 +14 +14 1027.5 1007.1
09 12.09 ЮЗ 4 30 км н/о +15.9 +14.3 90 +15 +15 1028.0 1007.6
10 12.09 ЮЗ 5 40 км н/о +16.8 +15.5 92 +16 +16 1028.7 1008.3
11 12.09 ЮЗ 5 35 км в посл. час дождь н/о +18.6 +16.6 88 +19 +19 1028.3 1008.1
12 12.09 ЮЗ 4 35 км н/о +19.0 +16.3 84 +20 +20 1028.1 1007.9 0.2
13 12.09 ЮЗ 6 50 км н/о +19.5 +15.1 76 +21 +21 комфорт 1027.9 1007.7
14 12.09 ЮЗ 6 30 км н/о +20.9 +15.4 71 +24 +24 комфорт 1027.5 1007.4
15 12.09 ЮЗ 6 35 км н/о +20.5 +15.3 72 +23 +23 комфорт 1027.4 1007.3
16 12.09 ЮЗ 6 40 км н/о +19.4 +15.7 79 +21 +21 комфорт 1027.4 1007.2
17 12.09 ЮЗ 5 40 км н/о +18.6 +15.6 83 +19 +19 1027.7 1007.5
18 12.09 ЮЗ 5 50 км н/о +17.7 +15.1 85 +17 +17 1027.8 1007.5 +21.8 0.2
19 12.09 ЮЗ 6 35 км н/о +17.0 +15.1 89 +16 +16 1028.7 1008.3
20 12.09 ЮЗ 6 24 км н/о +16.6 +15.1 91 +16 +16 1028.8 1008.5
21 12.09 ЮЗ 5 18 км н/о +16.5 +15.1 91 +16 +16 1029.4 1009.0
22 12.09 ЮЗ 5 21 км н/о +16.3 +14.8 91 +15 +15 1029.5 1009.1
23 12.09 ЮЗ 4 17 км н/о +16.0 +14.7 92 +15 +15 1029.6 1009.1
00 13.09 ЮЗ 3 10 км в посл. час дождь н/о +16.0 +14.9 93 +15 +15 1029.9 1009.4 0.0
01 13.09 З 3 21 км н/о +16.2 +15.0 93 +16 +16 1030.2 1009.8
02 13.09 З 4 19 км н/о +16.1 +15.1 94 +15 +15 1030.2 1009.7
03 13.09 З 3 18 км н/о +16.1 +15.2 94 +16 +16 1030.7 1010.2
04 13.09 С 4 50 км в посл. час дождь н/о +15.7 +13.4 86 +15 +15 1031.1 1010.6
05 13.09 С 4 50 км н/о +14.7 +11.4 81 +13 +13 1032.1 1011.6
06 13.09 С 4 50 км н/о +13.3 +8.9 75 +12 +12 1032.9 1012.2 +13.1 0.0
07 13.09 С 4 45 км н/о +13.1 +10.5 84 +11 +11 1033.5 1012.7
08 13.09 С 5 40 км н/о +13.8 +10.4 80 +12 +12 1034.0 1013.3
09 13.09 С 4 50 км н/о +14.9 +9.9 72 +14 +14 1034.9 1014.2
10 13.09 С 4 40 км н/о +16.1 +9.8 66 +15 +15 1035.0 1014.5
11 13.09 С 4 40 км н/о +17.3 +9.8 61 +17 +17 1034.9 1014.4
12 13.09 СВ 3 30 км н/о +17.7 +8.1 53 +18 +18 1034.9 1014.5
13 13.09 С 3 40 км н/о +18.5 +8.1 51 +19 +19 1034.6 1014.3
14 13.09 СВ 2 35 км н/о +19.2 +7.7 47 +20 +20 1034.6 1014.3
15 13.09 СВ 3 45 км н/о +19.3 +6.7 44 +20 +20 1034.5 1014.2
16 13.09 СВ 2 50 км н/о +19.5 +6.8 44 +21 +21 комфорт 1034.5 1014.1
17 13.09 СВ 3 50 км н/о +18.6 +6.9 46 +19 +19 1034.5 1014.1
18 13.09 СВ 1 45 км н/о +17.3 +6.9 50 +18 +18 1034.9 1014.4 +19.8
19 13.09 ЮВ 2 50 км н/о +14.7 +8.0 64 +15 +15 1035.3 1014.6
20 13.09 В 2 40 км н/о +13.6 +10.4 81 +13 +13 1036.1 1015.4
21 13.09 В 2 35 км н/о +13.0 +10.8 86 +13 +13 1036.2 1015.4
22 13.09 В 2 40 км н/о +12.1 +10.1 88 +11 +11 1036.5 1015.7
23 13.09 В 1 30 км н/о +10.9 +9.9 94 +10 +10 1036.3 1015.4
00 14.09 В 2 30 км н/о +11.4 +10.0 91 +11 +11 1036.1 1015.2
01 14.09 В 2 28 км н/о +11.0 +9.7 92 +10 +10 1035.7 1014.8
02 14.09 СВ 1 20 км н/о +8.5 +7.4 93 +8 +8 1036.1 1015.0
03 14.09 В 1 40 км н/о +9.4 +8.9 97 +9 +9 1035.4 1014.3
04 14.09 В 1 7000 м в посл. час туман н/о +8.0 +7.5 97 +8 +8 1035.2 1014.0
05 14.09 В 1 7000 м в посл. час туман н/о +7.9 +7.6 98 +7 +7 1035.0 1013.8
06 14.09 СВ 1 27 км н/о +7.3 +7.1 99 +7 +7 1035.1 1013.9 +7.1
07 14.09 СВ 1 23 км в посл. час туман н/о +9.6 +9.6 100 +10 +10 1034.9 1013.9
08 14.09 СВ 1 35 км н/о +13.7 +12.2 91 +14 +14 1034.5 1013.8
09 14.09 В 3 50 км н/о +15.8 +11.0 73 +15 +15 1034.0 1013.5
10 14.09 ЮВ 2 30 км н/о +17.2 +11.1 67 +18 +18 1033.4 1013.0
11 14.09 Ю 1 45 км н/о +18.0 +10.3 61 +19 +19 1033.1 1012.8
12 14.09 СВ 1 30 км н/о +19.0 +8.3 50 +21 +21 комфорт 1032.4 1012.1
13 14.09 СЗ 2 40 км н/о +19.9 +8.8 49 +22 +22 комфорт 1031.6 1011.4
14 14.09 СЗ 2 45 км н/о +20.6 +8.6 46 +23 +23 комфорт 1030.8 1010.6
15 14.09 СЗ 1 50 км н/о +21.2 +7.3 41 +22 +22 комфорт 1029.6 1009.5
16 14.09 В 1 30 км н/о +20.9 +6.6 39 +23 +23 комфорт 1029.3 1009.2
17 14.09 ЮЗ 2 50 км н/о +19.6 +7.9 47 +21 +21 комфорт 1028.9 1008.7
18 14.09 Ю 2 50 км н/о +18.4 +8.3 52 +19 +19 1028.8 1008.6 +21.9
19 14.09 Ю 1 50 км н/о +14.6 +7.5 62 +15 +15 1029.1 1008.6
20 14.09 Ю 4 40 км н/о +15.4 +10.8 74 +15 +15 1028.8 1008.3
21 14.09 ЮЗ 3 45 км н/о +14.7 +11.0 78 +14 +14 1028.5 1008.0
22 14.09 ЮЗ 3 50 км н/о +14.3 +10.3 77 +14 +14 1028.3 1007.7
23 14.09 ЮЗ 3 50 км н/о +13.7 +9.6 76 +13 +13 1027.7 1007.1
00 15.09 ЮЗ 2 50 км н/о +13.5 +10.0 79 +13 +13 1027.6 1007.1
01 15.09 З 3 50 км н/о +12.4 +8.7 78 +11 +11 1027.2 1006.5
02 15.09 ЮЗ 2 50 км н/о +12.5 +8.8 78 +12 +12 1026.6 1006.0
03 15.09 З 3 50 км н/о +11.9 +8.4 79 +11 +11 1026.2 1005.6
04 15.09 ЮЗ 2 40 км н/о +12.1 +8.5 79 +11 +11 1025.7 1005.1
05 15.09 З 2 45 км н/о +11.2 +7.9 80 +10 +10 1025.8 1005.0
06 15.09 З 2 40 км н/о +10.5 +7.6 82 +10 +10 1025.9 1005.2 +10.4
07 15.09 З 2 45 км н/о +12.2 +9.5 84 +11 +11 1025.7 1005.1
08 15.09 З 2 40 км н/о +13.9 +10.5 80 +14 +14 1025.7 1005.1
09 15.09 З 2 35 км н/о +17.0 +10.7 66 +18 +18 1025.5 1005.2
10 15.09 СЗ 3 35 км н/о +18.8 +10.3 58 +20 +20 1025.6 1005.4
11 15.09 СЗ 3 40 км н/о +20.0 +12.3 61 +22 +22 комфорт 1025.1 1005.0
12 15.09 СЗ 3 30 км н/о +21.0 +13.3 61 +24 +24 комфорт 1024.5 1004.5
13 15.09 СЗ 3 35 км н/о +22.3 +14.1 60 +26 +26 жарко 1024.2 1004.3
14 15.09 З 3 35 км н/о +22.9 +14.1 58 +26 +26 жарко 1023.4 1003.5
15 15.09 З 3 25 км н/о +23.7 +13.8 54 +26 +26 жарко 1022.9 1003.1
16 15.09 З 4 50 км н/о +23.6 +14.2 56 +26 +26 жарко 1022.4 1002.6
17 15.09 З 2 50 км н/о +23.7 +14.4 56 +26 +26 жарко 1022.0 1002.3
18 15.09 СЗ 2 50 км н/о +20.2 +13.4 65 +23 +23 комфорт 1022.4 1002.4 +24.0
19 15.09 ЮЗ 3 50 км н/о +19.5 +14.4 72 +21 +21 комфорт 1022.8 1002.7
20 15.09 ЮЗ 3 50 км н/о +18.5 +13.9 75 +19 +19 1022.9 1002.7
21 15.09 ЮЗ 3 50 км н/о +17.5 +13.7 78 +18 +18 1022.7 1002.5
22 15.09 З 2 45 км н/о +15.9 +13.2 84 +16 +16 1022.9 1002.6
23 15.09 ЮЗ 2 50 км н/о +16.0 +13.6 86 +16 +16 1022.7 1002.4
00 16.09 З 2 35 км н/о +15.6 +13.9 90 +16 +16 1022.6 1002.3
01 16.09 З 3 14 км н/о +15.6 +14.4 93 +15 +15 1022.5 1002.2
02 16.09 З 3 10 км н/о +15.1 +14.2 94 +14 +14 1022.1 1001.8
03 16.09 З 3 7000 м дымка н/о +14.9 +14.1 95 +14 +14 1021.5 1001.1
04 16.09 З 3 6000 м дымка н/о +14.5 +13.9 96 +14 +14 1021.5 1001.1
05 16.09 СЗ 2 5000 м дымка н/о +14.2 +13.7 97 +14 +14 1021.2 1000.8
06 16.09 З 3 5000 м дымка н/о +14.2 +13.6 96 +13 +13 1021.6 1001.1 +14.1
07 16.09 З 2 5000 м дымка н/о +14.5 +13.8 96 +14 +14 1021.7 1001.3
08 16.09 СЗ 2 8000 м дымка н/о +14.9 +14.0 94 +15 +15 1022.1 1001.7
09 16.09 З 2 8000 м в посл. час дождь н/о +15.4 +14.6 95 +15 +15 1022.2 1001.8
10 16.09 З 3 17 км н/о +16.4 +14.7 90 +16 +16 1022.2 1002.0
11 16.09 СЗ 3 30 км н/о +17.4 +14.9 85 +17 +17 1022.1 1001.9
12 16.09 З 3 30 км н/о +18.1 +14.9 82 +19 +19 1021.9 1001.7 0.0
13 16.09 СЗ 3 40 км н/о +18.0 +14.5 80 +18 +18 1021.7 1001.6
14 16.09 СЗ 3 45 км н/о +18.2 +14.5 79 +19 +19 1021.8 1001.6
15 16.09 СЗ 3 26 км н/о +17.6 +14.4 82 +18 +18 1021.8 1001.6
16 16.09 С 3 26 км н/о +17.1 +15.0 87 +17 +17 1021.8 1001.6
17 16.09 СВ 3 5000 м слаб. морось н/о +15.6 +14.9 96 +15 +15 1022.1 1001.7
18 16.09 СВ 2 7000 м в посл. час морось н/о +15.4 +14.7 96 +15 +15 1022.3 1001.9 +18.3 0.4
19 16.09 С 2 8000 м дымка н/о +15.4 +14.6 95 +15 +15 1022.7 1002.3
20 16.09 СВ 2 21 км н/о +15.1 +13.6 91 +15 +15 1023.0 1002.6
21 16.09 С 2 25 км н/о +14.8 +13.3 91 +14 +14 1023.4 1003.0
22 16.09 СВ 2 35 км н/о +14.6 +12.8 89 +14 +14 1023.4 1003.0
23 16.09 СВ 2 30 км н/о +13.2 +11.6 90 +12 +12 1023.3 1002.8
00 17.09 СВ 1 40 км н/о +13.4 +11.6 89 +14 +14 1023.3 1002.8
01 17.09 С 1 15 км н/о +12.5 +11.2 92 +13 +13 1023.7 1003.1
02 17.09 С 1 30 км н/о +12.6 +11.5 93 +13 +13 1023.4 1002.8
03 17.09 С 3 23 км н/о +13.1 +11.2 88 +12 +12 1023.5 1002.9
04 17.09 СЗ 2 45 км н/о +11.4 +8.7 83 +10 +10 1023.7 1003.0
05 17.09 СЗ 3 45 км н/о +9.2 +7.4 88 +7 +7 1024.0 1003.2
06 17.09 СЗ 3 35 км н/о +8.3 +7.2 93 +6 +6 1024.4 1003.5 +8.1
07 17.09 СЗ 3 23 км н/о +9.5 +8.4 93 +7 +7 1024.8 1004.0
08 17.09 С 2 30 км н/о +11.2 +9.1 87 +10 +10 1025.1 1004.4
09 17.09 С 4 35 км н/о +12.8 +7.8 72 +11 +11 1025.4 1004.8
10 17.09 С 4 40 км н/о +14.2 +8.3 68 +13 +13 1025.3 1004.8
11 17.09 С 4 35 км н/о +15.1 +7.4 60 +14 +14 1025.2 1004.7
12 17.09 С 4 40 км н/о +15.9 +6.9 55 +15 +15 1025.2 1004.8
13 17.09 СВ 4 50 км н/о +17.0 +6.9 51 +17 +17 1024.9 1004.6
14 17.09 СВ 3 35 км н/о +17.7 +7.6 52 +18 +18 1025.0 1004.8
15 17.09 С 4 24 км н/о +17.3 +7.0 51 +17 +17 1025.0 1004.8
16 17.09 СВ 4 40 км н/о +16.8 +6.1 49 +16 +16 1025.1 1004.8
17 17.09 СВ 3 40 км н/о +16.1 +6.3 52 +16 +16 1025.5 1005.2
18 17.09 СВ 3 45 км н/о +14.6 +6.0 56 +14 +14 1025.8 1005.3 +17.8
19 17.09 СВ 2 50 км н/о +13.0 +6.1 63 +12 +12 1026.6 1006.0
20 17.09 СВ 2 40 км н/о +11.2 +6.1 71 +11 +11 1027.2 1006.4
21 17.09 СВ 2 50 км н/о +10.6 +5.9 73 +10 +10 1027.9 1007.1
22 17.09 СВ 2 45 км н/о +10.0 +5.4 73 +9 +9 1028.4 1007.6
23 17.09 В 2 30 км н/о +9.4 +5.0 74 +8 +8 1028.6 1007.7
00 18.09 СВ 2 35 км н/о +8.0 +4.8 80 +7 +7 1028.6 1007.6
01 18.09 В 2 40 км н/о +7.4 +5.0 85 +6 +6 1028.9 1007.8
02 18.09 штиль 0 24 км н/о +5.8 +4.2 89 +5 +5 1028.9 1007.7
03 18.09 штиль 0 23 км н/о +5.7 +4.6 93 +5 +5 1029.0 1007.8
04 18.09 СВ 1 22 км н/о +4.9 +4.1 95 +5 +5 1029.3 1008.0
05 18.09 С 1 21 км н/о +4.8 +4.3 97 +3 +3 1029.5 1008.2
06 18.09 СВ 1 19 км н/о +4.0 +3.6 97 +2 +2 1030.0 1008.7 +3.9
07 18.09 СВ 1 24 км н/о +5.9 +5.7 99 +6 +6 1030.1 1008.9
08 18.09 СВ 2 35 км н/о +10.3 +7.0 80 +9 +9 1030.3 1009.4
09 18.09 СВ 3 13 км н/о +11.8 +6.4 69 +11 +11 1030.6 1009.9
10 18.09 СВ 3 35 км н/о +13.6 +7.1 65 +13 +13 1030.4 1009.8
11 18.09 СВ 3 26 км н/о +14.5 +6.0 57 +14 +14 1030.3 1009.8
12 18.09 СВ 3 28 км н/о +16.0 +6.5 53 +16 +16 1030.0 1009.5
13 18.09 В 3 40 км н/о +16.5 +6.4 51 +16 +16 1029.4 1009.0
14 18.09 СВ 4 40 км н/о +17.0 +6.0 48 +17 +17 1029.2 1008.9
15 18.09 СВ 3 45 км н/о +17.0 +5.9 48 +17 +17 1029.0 1008.6
16 18.09 С 3 23 км н/о +17.2 +7.2 52 +17 +17 1028.7 1008.3

 

Местоположение метеостанции Аэродром Кенли (Великобритания): широта 51.30 долгота -0.08 высота над уровнем моря 170 м.

В архиве по умолчанию представлена погода на Аэродроме Кенли за последнюю неделю. Архивные данные за месяц целиком и за предыдущие месяцы, начиная с января 2011 года, Вы можете получить, выбрав интересующий диапазон дат из раскрывающегося списка и нажав кнопку "Ввод!".


*Определитесь, кто Вы:
робот инопланетянин человек

Внимание! Время в таблицах - всемирное. Для получения местного времени необходимо прибавить поправку, которая равна 0 ч.

Смотрите также архив погоды в соседних городах и на ближайших метеорологических станциях:

Погода в Чарлвуде (Великобритания) (22 км)
Погода в Лондоне (Великобритания) (22 км)
Погода в Грейвзенде (Великобритания) (32 км)
Погода в Лондоне (Великобритания) (33 км)
Погода в Норхолте (Великобритания) (36 км)
Погода в Фарнборо (Великобритания) (48 км)
Погода в Херстмонсо (Великобритания) (53 км)
Погода в Аэропорту Брайтон-Сити (Великобритания) (54 км)
Погода в Одихеме (Великобритания) (61 км)
Погода в Ротамстеде (Великобритания) (63 км)

Пояснения к столбцам:

Ветер - указаны скорость ветра в м/с - средняя за 10 мин, порывы в срок и между сроками (в фигурных скобках) и направление, откуда дует ветер: С - северный, СВ - северо-восточный, В - восточный, ЮВ - юго-восточный, Ю - южный, ЮЗ - юго-западный, З - западный, СЗ - северо-западный.
Видимость - горизонтальная дальность видимости в метрах или километрах. При видимости от 1 до 10 км при отсутствии осадков обычно наблюдается дымка, при ухудшении видимости до 1 км и менее - туман. В сухую погоду видимость может ухудшаться дымом, пылью или мглою.
Явления - указаны атмосферные явления, наблюдавшиеся в срок или в последний час перед сроком; фигурными скобками обозначены явления, наблюдавшиеся между сроками (за 1-3 часа до срока); квадратными скобками обозначены град или гололедные отложения с указанием их диаметра в мм.
Облачность - указаны через наклонную черту общая и нижняя облачность в баллах и высота нижней границы облаков в метрах; квадратными скобками обозначены формы облаков: Ci - перистые, Cs - перисто-слоистые, Cc - перисто-кучевые, Ac - высококучевые, As - высокослоистые, Sc - слоисто-кучевые, Ns - слоисто-дождевые, Cu - кучевые, Cb - кучево-дождевые. Подробнее классификацию облаков см. в Атласе облаков (PDF).
T - Температура воздуха - температура, измеренная на высоте 2 м над землей.
Td - Температура точки росы - температура, при понижении до которой содержащийся в воздухе водяной пар достигнет насыщения.
f - Относительная влажность воздуха - влажноcть воздуха, измеренная на высоте 2 м над землей.
Te - Эффективная температура - температура, которую ощущает одетый по сезону человек в тени. Характеристика душности погоды. При расчете учитывается влияние влажности воздуха и скорости ветра на теплоощущения человека.
Tes - Эффективная температура на солнце - температура, которую ощущает человек, с поправкой на солнечный нагрев. Характеристика знойности погоды. Зависит от высоты солнца над горизонтом, облачности и скорости ветра. Ночью, в пасмурную погоду, а также при ветре 12 м/с и более поправка равна нулю.
P - Атмосферное давление - приведенное к уровню моря атмосферное давление.
Po - Атмосферное давление - измеренное на уровне метеостанции атмосферное давление.
Tmin - Минимальная температура - минимум температуры воздуха на высоте 2 м над землей.
Tmax - Максимальная температура - максимум температуры воздуха на высоте 2 м над землей.
R - Количество осадков - Количество выпавших осадков за период времени, мм. При наведении курсора мыши на число - период времени, за который выпало указанное количество осадков.
R24 - Количество осадков - Количество выпавших осадков за 24 часа, мм.
S - Снежный покров - Высота снежного покрова, см. При наведении курсора мыши на число - состояние снежного покрова и степень покрытия местности в баллах.